Location: Breungeshain
(50.5000°N, 9.2000°E)
Time: 14:05:28
(UTC+00:00)

ISS - Pass Details

Date: 18 May 2018
Orbit: 402 x 407 km, 51.6° (Epoch: 23 May)

Event Time Altitude Azimuth Distance (km) Brightness Sun altitude
Exits shadow 22:57:33 30° 84° (E) 753 -2.5 -19.6°
Drops below altitude 10° 22:59:22 10° 77° (ENE) 1,460 -0.9 -19.7°
Sets 23:01:27 0° 75° (ENE) 2,321 0.2 -19.7°
